Flag for Germany Weather past 2 weeks in Siegburg, North Rhine-Westphalia, Germany

Now
52 °F

Overcast.


Feels Like: 50 °F
Forecast: 52 / 60 °F
Wind: 6 mph from Southwest

Location: Bonn-Hangelar

Current Time: Sep 5, 2015 at 12:02:12 AM

Latest Report: Sep 4, 2015 at 11:00 PM


Visibility: 10 mi

Pressure: 29.99 "Hg

Humidity: 93%

Dew point: 50 °F

Location of SiegburgLocation

Historic Weather in Siegburg — Graph

°F

Siegburg temperature yesterday

Maximum temperature yesterday: 59 °F (at 5:00 PM)
Minimum temperature yesterday: 49 °F (at 7:00 AM)
Average temperature yesterday: 54 °F

Past Weeks' High & Low Weather Summary

 TemperatureHumidityPressure
High87 °F (Aug 30, 4:00 PM)100% (Aug 24, 1:00 AM)30.24 "Hg (Aug 24, 1:00 AM)
Low49 °F (Sep 4, 7:00 AM)32% (Aug 31, 4:00 PM)29.50 "Hg (Aug 24, 3:00 PM)
Average64 °F78%29.95 "Hg
* Reported Aug 20 10:00 PM — Sep 4 10:00 PM, Siegburg, Weather by CustomWeather, © 2015

Note: Actual official high and low records may vary slightly from our data, if they occured in-between our weather recording intervals... More about our weather records

Advertising

Siegburg weather history for previous 24 hours

 ConditionsComfort  
Time TempWeatherWind HumidityBarometerVisibility
10:00 PM
Fri, Sep 4
53 °FOvercast.6 mph90%29.99 "Hg15 mi
9:00 PM54 °FOvercast.6 mph90%29.98 "Hg13 mi
8:00 PM54 °FScattered clouds.5 mph82%29.97 "Hg31 mi
7:00 PM56 °FPassing clouds.6 mph82%29.97 "Hg13 mi
6:00 PM54 °FRain. Low clouds.7 mph89%29.97 "Hg5 mi
5:00 PM59 °FOvercast.7 mph71%29.96 "Hg17 mi
4:00 PM58 °FPassing clouds.8 mph74%29.98 "Hg19 mi
3:00 PM57 °FOvercast.7 mph75%29.99 "Hg15 mi
2:00 PM58 °FOvercast.7 mph74%29.99 "Hg16 mi
1:00 PM58 °FOvercast.7 mph76%29.99 "Hg17 mi
12:00 PM57 °FOvercast.7 mph82%30.00 "Hg12 mi
11:00 AM55 °FOvercast.7 mph85%30.00 "Hg12 mi
10:00 AM52 °FOvercast.7 mph92%29.99 "Hg9 mi
9:00 AM51 °FOvercast.7 mph93%29.98 "Hg11 mi
8:00 AM50 °FOvercast.5 mph96%29.98 "Hg11 mi
7:00 AM49 °FOvercast.3 mph97%29.98 "Hg9 mi
5:00 AM49 °FClear.5 mph97%29.98 "Hg6 mi
4:00 AM50 °FOvercast.3 mph96%29.98 "Hg6 mi
3:00 AM51 °FOvercast.3 mph96%29.99 "Hg6 mi
2:00 AM51 °FOvercast.5 mph94%29.99 "Hg9 mi
1:00 AM51 °FOvercast.5 mph97%29.99 "Hg5 mi
Weather by CustomWeather, © 2015

See weather overviewHow to use our weather pages